Regional Weather Roundup
Issued by NWS Newport/Morehead, NC

Current Version | Previous Version | Graphics & Text | Print | Product List | Glossary On
Versions: 1 2 3 4 5 6 7 8 9 10 11 12 13 14 15 16 17 18 19 20 21 22 23 24 25 26 27 28 29 30 31 32 33 34 35 36 37 38 39 40 41 42 43 44 45 46 47 48 49 50
000 ASUS42 KMHX 240213 RWRMHX WEATHER ROUNDUP FOR EASTERN NORTH CAROLINA NATIONAL WEATHER SERVICE NEWPORT/MOREHEAD CITY NC 1000 PM EDT MON OCT 23 2017 NOTE: "FAIR" INDICATES FEW OR NO CLOUDS BELOW 12,000 FEET WITH NO SIGNIFICANT WEATHER AND/OR OBSTRUCTIONS TO VISIBILITY NCZ015>017-031-032-045>047-102-103-240300- NORTH COAST CITY SKY/WX TMP DP RH WIND PRES REMARKS EDENTON CLOUDY 76 69 77 S17G26 29.90F ELIZABETH CITY CLOUDY 75 68 78 SE13G23 29.92F KITTY HAWK CLOUDY 75 64 70 SE9G18 29.95S MANTEO CLOUDY N/A N/A N/A S15G22 29.96S $$ NCZ045>047-081-094-103-104-240300- CENTRAL COAST CITY SKY/WX TMP DP RH WIND PRES REMARKS FRISCO CLOUDY 78 68 71 S28G36 29.98R $$ NCZ095-097-098-100-101-240300- SOUTHERN COAST CITY SKY/WX TMP DP RH WIND PRES REMARKS BEAUFORT MOCLDY 75 70 84 S20G30 29.96R CEDAR ISLAND NOT AVBL JACKSONVILLE CLOUDY 77 72 84 S20G32 29.91R PINEY ISLAND FLURRIES N/A N/A N/A S17G28 29.95F WILMINGTON RAIN 76 72 87 S17G24 29.93R $$ NCZ011>013-027>030-043-044-078>080-089-090>093-098-240300- COASTAL PLAIN CITY SKY/WX TMP DP RH WIND PRES REMARKS AHOSKIE CLOUDY 72 68 88 S14G22 29.87S CLINTON CLOUDY 76 71 84 SE8 29.83F ELIZABETHTOWN NOT AVBL GOLDSBORO CLOUDY 75 69 80 SE18G25 29.82F GREENVILLE CLOUDY 72 70 94 S12 29.90R HAVELOCK LGT RAIN 75 71 87 S17G25 29.94S KENANSVILLE CLOUDY 75 68 78 SE13G24 29.82F KINSTON CLOUDY 73 70 88 SE17G23 29.87F NEW BERN MOCLDY 73 71 93 S15G24 29.93S RICHLANDS CLOUDY 76 70 82 S20G32 29.89F ROCKY MOUNT CLOUDY 73 70 90 S14G22 29.83S WASHINGTON CLOUDY 72 69 92 SE15 29.90R WHITEVILLE LGT RAIN 74 72 93 S24G36 29.81R $$ AMZ130-135-150-152-154-156-158-170-250-252-270-ANZ085-086-088-633-658-670-240300- MARINE OBSERVATIONS STATION/POSITION TIME TEMP WIND PRES WAVE SWELL AIR SEA DIR/SP/G HT/PER HT/PER (UTC) (F) (DEG/KT/KT) (MB) (FT/S) (FT/S) CHESAPEAKE LIGHT NOT AVBL 64 E VA BEACH 0150 74 69 160/ 21/ 27 1015.2 7/ 7 DUCK 0142 74 70 1013.6 2 E DUCK 0200 71 N/A 5/ 6 OREGON INLET 0142 74 72 1014.6 13E OREGON INLT 0148 73 N/A 7/ 6 5/ 6 HATTERAS CG 0142 77 74 1014.9 DIAMOND BUOY 0150 79 80 160/ 29/ 37 1014.1 7/ 6 CAPE LOOKOUT 0200 76 170/ 25/ 28 1014.3 BEAUFORT LAB 0142 76 74 1014.1 30 SE NEW RVR IN 0108 78 170/ 23/ 31 1013.3 30 SE NEW RVR IN NOT AVBL 27 SE WRIGHTSVLE 0108 78 76 170/ 21/ 29 1013.3 5 SE WRIGHTSVLE 0108 77 74 170/ 17/ 27 1013.3 225 S CAPE HAT 0150 78 80 130/ 17/ 19 1017.8 5/ 6 2/13 41 SE CHARLESTON 0200 81 80 180/ 27/ 35 1011.4 $$

USA.gov is the U.S. government's official web portal to all federal, state and local government web resources and services.